• In Netherlands
  • List of Countries
  • For 7 days
  • Water Temperature
  • Satellite Maps
  • Weather Map
  • Weather Widgets
  • user-avatar
    Login

    Hourly Weather Bansko

    Today, 19 October, Friday

    Time Temperature Precipitation Wind Pressure Humidity
    00:00 +13°C° 0 mm 0 mps 721 mmHg 77%
    01:00 +13°C° 0 mm 0 mps 721 mmHg 78%
    02:00 +13°C° 0 mm 0 mps 721 mmHg 79%
    03:00 +12°C° 0 mm 0 mps 721 mmHg 80%
    04:00 +12°C° 0 mm 0 mps 721 mmHg 81%
    05:00 +12°C° 0 mm 0 mps 721 mmHg 82%
    06:00 +13°C° 0 mm 0 mps 721 mmHg 78%
    07:00 +14°C° 0 mm 0 mps 721 mmHg 73%
    08:00 +15°C° 0 mm 0 mps 722 mmHg 69%
    09:00 +19°C° 0 mm 1 mps 722 mmHg 62%
    10:00 +21°C° 0 mm 1 mps 722 mmHg 54%
    11:00 +23°C° 0 mm 1 mps 722 mmHg 47%
    12:00 +23°C° 0 mm 1 mps 722 mmHg 46%
    13:00 +24°C° 0 mm 1 mps 722 mmHg 45%
    14:00 +24°C° 0 mm 2 mps 722 mmHg 45%
    15:00 +23°C° 0.1 mm 1 mps 721 mmHg 48%
    16:00 +22°C° 0.1 mm 1 mps 721 mmHg 51%
    17:00 +22°C° 0.1 mm 1 mps 721 mmHg 54%
    18:00 +20°C° 0 mm 1 mps 721 mmHg 61%
    19:00 +18°C° 0 mm 1 mps 721 mmHg 68%
    20:00 +15°C° 0 mm 1 mps 722 mmHg 74%
    21:00 +15°C° 0 mm 1 mps 722 mmHg 77%
    22:00 +14°C° 0 mm 1 mps 722 mmHg 79%
    23:00 +14°C° 0 mm 1 mps 722 mmHg 81%

    Tomorrow, 20 October, Saturday

    Time Temperature Precipitation Wind Pressure Humidity
    00:00 +14°C° 0 mm 1 mps 722 mmHg 82%
    01:00 +13°C° 0 mm 1 mps 722 mmHg 83%
    02:00 +13°C° 0 mm 1 mps 722 mmHg 84%
    03:00 +12°C° 0 mm 1 mps 722 mmHg 85%
    04:00 +12°C° 0 mm 1 mps 722 mmHg 85%
    05:00 +12°C° 0 mm 1 mps 722 mmHg 86%
    06:00 +13°C° 0 mm 1 mps 723 mmHg 82%
    07:00 +13°C° 0 mm 1 mps 723 mmHg 77%
    08:00 +14°C° 0 mm 1 mps 723 mmHg 73%
    09:00 +16°C° 0.1 mm 1 mps 723 mmHg 67%
    10:00 +17°C° 0.1 mm 2 mps 724 mmHg 60%
    11:00 +19°C° 0.1 mm 2 mps 724 mmHg 54%
    12:00 +19°C° 0.2 mm 2 mps 723 mmHg 51%
    13:00 +20°C° 0.2 mm 3 mps 723 mmHg 49%
    14:00 +20°C° 0.2 mm 3 mps 723 mmHg 46%
    15:00 +20°C° 0.2 mm 3 mps 723 mmHg 50%
    16:00 +19°C° 0.2 mm 3 mps 723 mmHg 53%
    17:00 +18°C° 0.2 mm 3 mps 723 mmHg 57%
    18:00 +16°C° 0 mm 2 mps 723 mmHg 64%
    19:00 +15°C° 0 mm 2 mps 723 mmHg 71%
    20:00 +13°C° 0 mm 2 mps 723 mmHg 78%
    21:00 +13°C° 0 mm 2 mps 724 mmHg 81%
    22:00 +12°C° 0 mm 2 mps 724 mmHg 84%
    23:00 +12°C° 0 mm 1 mps 724 mmHg 86%

    Day after tomorrow, 21 October, Sunday

    Time Temperature Precipitation Wind Pressure Humidity
    00:00 +11°C° 0 mm 1 mps 724 mmHg 87%
    01:00 +11°C° 0 mm 1 mps 724 mmHg 88%
    02:00 +11°C° 0 mm 1 mps 723 mmHg 89%
    03:00 +11°C° 0 mm 1 mps 723 mmHg 90%
    04:00 +11°C° 0 mm 1 mps 723 mmHg 90%
    05:00 +11°C° 0 mm 1 mps 723 mmHg 90%
    06:00 +11°C° 0 mm 1 mps 723 mmHg 87%
    07:00 +12°C° 0 mm 1 mps 723 mmHg 84%
    08:00 +13°C° 0 mm 1 mps 723 mmHg 81%
    09:00 +14°C° 0 mm 1 mps 723 mmHg 73%
    10:00 +16°C° 0 mm 1 mps 723 mmHg 65%
    11:00 +18°C° 0 mm 1 mps 723 mmHg 57%
    12:00 +19°C° 0 mm 1 mps 722 mmHg 56%
    13:00 +19°C° 0 mm 1 mps 722 mmHg 55%
    14:00 +19°C° 0 mm 1 mps 721 mmHg 55%
    15:00 +18°C° 0.1 mm 1 mps 721 mmHg 58%
    16:00 +18°C° 0.1 mm 1 mps 721 mmHg 61%
    17:00 +16°C° 0.1 mm 1 mps 720 mmHg 64%
    18:00 +15°C° 0.3 mm 1 mps 720 mmHg 70%
    19:00 +14°C° 0.3 mm 1 mps 720 mmHg 75%
    20:00 +13°C° 0.3 mm 1 mps 720 mmHg 81%
    21:00 +12°C° 0.4 mm 1 mps 720 mmHg 83%
    22:00 +12°C° 0.4 mm 1 mps 720 mmHg 85%
    23:00 +11°C° 0.4 mm 1 mps 720 mmHg 87%

    22 October, Monday

    Time Temperature Precipitation Wind Pressure Humidity
    00:00 +11°C° 0.3 mm 1 mps 720 mmHg 88%
    01:00 +11°C° 0.3 mm 1 mps 720 mmHg 88%
    02:00 +11°C° 0.3 mm 1 mps 720 mmHg 89%
    03:00 +11°C° 0.2 mm 1 mps 720 mmHg 90%
    04:00 +11°C° 0.2 mm 1 mps 720 mmHg 90%
    05:00 +10°C° 0.2 mm 1 mps 720 mmHg 91%
    06:00 +11°C° 0.2 mm 1 mps 720 mmHg 89%
    07:00 +11°C° 0.2 mm 1 mps 720 mmHg 87%
    08:00 +12°C° 0.2 mm 1 mps 721 mmHg 85%
    09:00 +13°C° 0.3 mm 1 mps 721 mmHg 80%
    10:00 +14°C° 0.3 mm 1 mps 721 mmHg 76%
    11:00 +15°C° 0.3 mm 2 mps 721 mmHg 71%
    12:00 +15°C° 0.6 mm 2 mps 721 mmHg 71%
    13:00 +15°C° 0.6 mm 2 mps 720 mmHg 72%
    14:00 +15°C° 0.6 mm 2 mps 720 mmHg 72%
    15:00 +14°C° 0.7 mm 2 mps 720 mmHg 75%
    16:00 +14°C° 0.7 mm 1 mps 720 mmHg 77%
    17:00 +13°C° 0.7 mm 1 mps 720 mmHg 79%
    18:00 +13°C° 1 mm 1 mps 720 mmHg 82%
    19:00 +12°C° 1 mm 1 mps 720 mmHg 86%
    20:00 +12°C° 1 mm 1 mps 720 mmHg 89%
    21:00 +12°C° 0.6 mm 1 mps 720 mmHg 89%
    22:00 +11°C° 0.6 mm 1 mps 720 mmHg 89%
    23:00 +11°C° 0.6 mm 1 mps 720 mmHg 90%

    23 October, Tuesday

    Time Temperature Precipitation Wind Pressure Humidity
    00:00 +11°C° 0.1 mm 1 mps 720 mmHg 90%
    01:00 +11°C° 0.1 mm 1 mps 720 mmHg 91%
    02:00 +10°C° 0.1 mm 1 mps 720 mmHg 92%
    03:00 +9°C° 0 mm 2 mps 720 mmHg 92%
    04:00 +9°C° 0 mm 2 mps 719 mmHg 92%
    05:00 +9°C° 0 mm 2 mps 719 mmHg 92%
    06:00 +9°C° 0 mm 2 mps 719 mmHg 90%
    07:00 +10°C° 0 mm 2 mps 719 mmHg 89%
    08:00 +10°C° 0 mm 2 mps 719 mmHg 87%
    09:00 +12°C° 0 mm 2 mps 719 mmHg 80%
    10:00 +14°C° 0 mm 2 mps 719 mmHg 73%
    11:00 +14°C° 0 mm 3 mps 719 mmHg 66%
    12:00 +14°C° 0 mm 3 mps 719 mmHg 64%
    13:00 +16°C° 0 mm 3 mps 718 mmHg 61%
    14:00 +16°C° 0 mm 3 mps 718 mmHg 59%
    15:00 +14°C° 0 mm 3 mps 718 mmHg 62%
    16:00 +14°C° 0 mm 3 mps 718 mmHg 65%
    17:00 +13°C° 0 mm 3 mps 718 mmHg 67%
    18:00 +12°C° 0.1 mm 3 mps 718 mmHg 72%
    19:00 +11°C° 0.1 mm 3 mps 718 mmHg 76%
    20:00 +12°C° 0.1 mm 2 mps 718 mmHg 80%
    21:00 +10°C° 0.1 mm 3 mps 718 mmHg 81%
    22:00 +10°C° 0.1 mm 3 mps 718 mmHg 82%
    23:00 +10°C° 0.1 mm 3 mps 718 mmHg 83%

    24 October, Wednesday

    Time Temperature Precipitation Wind Pressure Humidity
    00:00 +10°C° 0.1 mm 3 mps 718 mmHg 84%
    01:00 +9°C° 0.1 mm 3 mps 718 mmHg 85%
    02:00 +9°C° 0.1 mm 3 mps 718 mmHg 87%
    03:00 +9°C° 0.1 mm 3 mps 718 mmHg 86%
    04:00 +9°C° 0.1 mm 3 mps 718 mmHg 86%
    05:00 +9°C° 0.1 mm 3 mps 718 mmHg 86%
    06:00 +9°C° 0 mm 3 mps 718 mmHg 85%
    07:00 +9°C° 0 mm 3 mps 718 mmHg 83%
    08:00 +9°C° 0 mm 3 mps 719 mmHg 81%
    09:00 +10°C° 0 mm 3 mps 719 mmHg 76%
    10:00 +11°C° 0 mm 3 mps 719 mmHg 70%
    11:00 +12°C° 0 mm 4 mps 719 mmHg 64%
    12:00 +13°C° 0 mm 3 mps 718 mmHg 62%
    13:00 +13°C° 0 mm 3 mps 718 mmHg 59%
    14:00 +14°C° 0 mm 3 mps 717 mmHg 56%
    15:00 +13°C° 0 mm 3 mps 717 mmHg 57%
    16:00 +14°C° 0 mm 2 mps 717 mmHg 59%
    17:00 +13°C° 0 mm 2 mps 717 mmHg 60%
    18:00 +12°C° 0 mm 2 mps 717 mmHg 65%
    19:00 +9°C° 0 mm 2 mps 718 mmHg 70%
    20:00 +8°C° 0 mm 2 mps 718 mmHg 75%
    21:00 +7°C° 0 mm 2 mps 718 mmHg 75%
    22:00 +7°C° 0 mm 2 mps 718 mmHg 76%
    23:00 +6°C° 0 mm 2 mps 718 mmHg 76%
    Show more